Latest Coastal Weather Observations for Cape Wessel

IDD60701

Issued at 9:11 pm CST Monday 20 November 2017 (issued every 10 minutes, with the page automatically refreshed every 10 minutes)

About coastal observations | Map of coastal stations | Coastal observations for NT | Marine services | Other Formats
Station Details ID: 200786 Name: CAPE WESSEL Lat: -11.00 Lon: 136.76 Height: 18.0 m
Data from the previous 72 hours. | See also: Recent months at Cape Wessel
Date/Time
CST
Temp
°C
Wind Pressure Rain since
9am
mm
Weather Cloud Vis
km
Sea
Height
m
Swell
Dir  Spd
kts
Gust
kts
hPa Trend Height
m
Period
s
Dir
20/09:00pm 27.7 ENE 6 9 1008.3 - 0.0 - - - - - - -
20/08:30pm 27.8 NE 7 9 1007.8 - 0.0 - - - - - - -
20/08:00pm 28.0 NE 9 10 1007.7 - 0.0 - - - - - - -
20/07:30pm 28.2 NNE 8 10 1007.5 - 0.0 - - - - - - -
20/07:00pm 28.8 ENE 8 9 1007.3 - 0.0 - - - - - - -
20/06:30pm 28.6 NE 7 9 1007.4 - 0.0 - - - - - - -
20/06:00pm 29.6 NE 8 11 1007.3 - 0.0 - - - - - - -
20/05:30pm 30.5 NE 7 10 1007.4 - 0.0 - - - - - - -
20/05:00pm 31.2 ENE 8 10 1007.2 - 0.0 - - - - - - -
20/04:30pm 31.8 ENE 9 12 1007.0 - 0.0 - - - - - - -
20/04:00pm 31.8 NE 10 11 1007.1 - 0.0 - - - - - - -
20/03:30pm 32.4 NE 10 13 1007.2 - 0.0 - - - - - - -
20/03:00pm 34.0 NE 11 13 1007.5 - 0.0 - - - - - - -
20/02:30pm 34.0 NE 9 11 1007.9 - 0.0 - - - - - - -
20/02:00pm 34.2 NE 9 11 1008.0 - 0.0 - - - - - - -
20/01:30pm 34.2 NE 10 13 1008.2 - 0.0 - - - - - - -
20/01:00pm 33.9 NE 10 13 1008.7 - 0.0 - - - - - - -
20/12:30pm 33.8 ENE 10 13 1009.0 - 0.0 - - - - - - -
20/12:00pm 34.7 ENE 10 12 1009.3 - 0.0 - - - - - - -
20/11:30am 34.2 ENE 10 12 1009.7 - 0.0 - - - - - - -
20/11:00am 33.2 ENE 9 12 1010.1 - 0.0 - - - - - - -
20/10:30am 33.5 ENE 9 11 1010.4 - 0.0 - - - - - - -
20/10:00am 32.6 ENE 9 11 1010.6 - 0.0 - - - - - - -
20/09:30am 32.6 ENE 9 11 1010.6 - 0.0 - - - - - - -
20/09:00am 31.9 ENE 10 13 1010.3 - 0.0 - - - - - - -
20/08:30am 31.8 ENE 10 12 1010.0 - 0.0 - - - - - - -
20/08:00am 31.0 ENE 10 13 1009.8 - 0.0 - - - - - - -
20/07:30am 29.7 E 10 13 1009.6 - 0.0 - - - - - - -
20/07:00am 28.9 ENE 11 14 1009.1 - 0.0 - - - - - - -
20/06:30am 28.0 ENE 11 14 1008.6 - 0.0 - - - - - - -
20/06:00am 27.6 ENE 11 14 1008.2 - 0.0 - - - - - - -
20/05:30am 27.4 ENE 11 15 1008.0 - 0.0 - - - - - - -
20/05:00am 27.4 ENE 10 13 1007.9 - 0.0 - - - - - - -
20/04:30am 27.4 ENE 10 13 1008.0 - 0.0 - - - - - - -
20/04:00am 27.2 ENE 8 10 1008.1 - 0.0 - - - - - - -
20/03:30am 26.9 ENE 6 7 1008.3 - 0.0 - - - - - - -
20/03:00am 27.0 E 5 7 1008.4 - 0.0 - - - - - - -
20/02:30am 27.2 ENE 7 8 1008.5 - 0.0 - - - - - - -
20/02:00am 27.0 ENE 5 7 1008.7 - 0.0 - - - - - - -
20/01:30am 27.3 NE 6 7 1009.1 - 0.0 - - - - - - -
20/01:00am 27.1 NE 5 6 1009.4 - 0.0 - - - - - - -
20/12:30am 27.3 NE 5 6 1009.6 - 0.0 - - - - - - -
20/12:00am 27.5 NE 5 7 1010.0 - 0.0 - - - - - - -
 
Date/Time
CST
Temp
°C
Wind Pressure Rain since
9am
mm
Weather Cloud Vis
km
Sea
Height
m
Swell
Dir  Spd
kts
Gust
kts
hPa Trend Height
m
Period
s
Dir
19/11:30pm 27.7 NE 6 7 1010.1 - 0.0 - - - - - - -
19/11:00pm 27.8 ENE 5 6 1010.3 - 0.0 - - - - - - -
19/10:30pm 27.9 ENE 5 6 1010.4 - 0.0 - - - - - - -
19/10:00pm 27.9 E 5 7 1010.2 - 0.0 - - - - - - -
19/09:30pm 27.9 ENE 6 7 1009.8 - 0.0 - - - - - - -
19/09:00pm 27.9 ENE 6 7 1009.1 - 0.0 - - - - - - -
19/08:30pm 27.9 E 5 7 1008.8 - 0.0 - - - - - - -
19/08:00pm 28.2 ENE 6 8 1008.5 - 0.0 - - - - - - -
19/07:30pm 28.5 ENE 5 6 1008.1 - 0.0 - - - - - - -
19/07:00pm 28.1 ENE 5 7 1007.6 - 0.0 - - - - - - -
19/06:30pm 28.7 NE 5 7 1007.6 - 0.0 - - - - - - -
19/06:00pm 29.8 NE 6 7 1007.2 - 0.0 - - - - - - -
19/05:30pm 30.7 NNE 6 7 1007.0 - 0.0 - - - - - - -
19/05:00pm 31.1 NNE 6 8 1006.8 - 0.0 - - - - - - -
19/04:30pm 32.1 NNE 7 10 1006.3 - 0.0 - - - - - - -
19/04:00pm 32.4 NNE 8 9 1006.2 - 0.0 - - - - - - -
19/03:30pm 32.9 NE 8 10 1006.4 - 0.0 - - - - - - -
19/03:00pm 33.8 NNE 9 11 1006.8 - 0.0 - - - - - - -
19/02:30pm 33.9 NE 9 11 1007.4 - 0.0 - - - - - - -
19/02:00pm 33.9 NE 9 11 1007.9 - 0.0 - - - - - - -
19/01:30pm 33.1 NE 9 11 1008.2 - 0.0 - - - - - - -
19/01:00pm 34.9 NE 9 11 1008.5 - 0.0 - - - - - - -
19/12:30pm 33.8 NE 9 11 1008.9 - 0.0 - - - - - - -
19/12:00pm 34.0 NE 9 11 1009.4 - 0.0 - - - - - - -
19/11:30am 33.6 NE 9 12 1009.5 - 0.0 - - - - - - -
19/11:00am 33.2 ENE 8 11 1010.0 - 0.0 - - - - - - -
19/10:30am 33.4 ENE 8 11 1010.2 - 0.0 - - - - - - -
19/10:00am 33.0 ENE 8 10 1010.2 - 0.0 - - - - - - -
19/09:30am 32.3 ENE 9 11 1010.1 - 0.0 - - - - - - -
19/09:00am 31.8 ENE 8 10 1010.1 - 0.0 - - - - - - -
19/08:30am 31.6 ENE 7 9 1010.0 - 0.0 - - - - - - -
19/08:00am 31.0 ENE 7 9 1009.7 - 0.0 - - - - - - -
19/07:30am 30.1 ENE 8 10 1009.4 - 0.0 - - - - - - -
19/07:00am 28.9 ENE 7 9 1009.1 - 0.0 - - - - - - -
19/06:30am 27.6 ENE 9 11 1008.7 - 0.0 - - - - - - -
19/06:00am 27.3 ENE 9 12 1008.5 - 0.0 - - - - - - -
19/05:30am 27.0 ENE 8 9 1008.4 - 0.0 - - - - - - -
19/05:00am 26.8 ENE 7 8 1008.1 - 0.0 - - - - - - -
19/04:30am 26.7 ENE 7 8 1007.9 - 0.0 - - - - - - -
19/04:00am 26.5 ENE 5 7 1007.9 - 0.0 - - - - - - -
19/03:30am 26.4 ENE 3 5 1007.7 - 0.0 - - - - - - -
19/03:00am 26.7 NE 6 7 1007.3 - 0.0 - - - - - - -
19/02:30am 26.9 NE 6 8 1007.4 - 0.0 - - - - - - -
19/02:00am 26.9 NE 6 8 1007.7 - 0.0 - - - - - - -
19/01:30am 26.9 NE 6 7 1007.8 - 0.0 - - - - - - -
19/01:00am 27.1 ENE 7 8 1008.2 - 0.0 - - - - - - -
19/12:30am 27.0 E 6 8 1008.6 - 0.0 - - - - - - -
19/12:00am 27.2 ENE 7 9 1008.7 - 0.0 - - - - - - -
 
Date/Time
CST
Temp
°C
Wind Pressure Rain since
9am
mm
Weather Cloud Vis
km
Sea
Height
m
Swell
Dir  Spd
kts
Gust
kts
hPa Trend Height
m
Period
s
Dir
18/11:30pm 27.4 ENE 8 9 1008.9 - 0.0 - - - - - - -
18/11:00pm 27.6 ENE 9 10 1009.0 - 0.0 - - - - - - -
18/10:30pm 27.7 ENE 9 11 1009.1 - 0.0 - - - - - - -
18/10:00pm 27.7 ENE 9 11 1009.3 - 0.0 - - - - - - -
18/09:30pm 27.7 E 8 11 1009.2 - 0.0 - - - - - - -
18/09:00pm 27.7 ENE 9 11 1009.2 - 0.0 - - - - - - -
18/08:30pm 27.8 ENE 9 11 1008.8 - 0.0 - - - - - - -
18/08:00pm 28.0 E 11 13 1008.2 - 0.0 - - - - - - -
18/07:30pm 28.1 E 10 13 1008.2 - 0.0 - - - - - - -
18/07:00pm 28.0 E 10 13 1007.9 - 0.0 - - - - - - -
18/06:30pm 28.3 E 11 13 1007.6 - 0.0 - - - - - - -
18/06:00pm 28.9 ENE 11 14 1007.2 - 0.0 - - - - - - -
18/05:30pm 29.6 ENE 10 14 1007.1 - 0.0 - - - - - - -
18/05:00pm 29.9 E 11 14 1007.1 - 0.0 - - - - - - -
18/04:30pm 31.3 E 10 14 1007.1 - 0.0 - - - - - - -
18/04:00pm 31.5 ESE 11 14 1007.0 - 0.0 - - - - - - -
18/03:30pm 31.8 ESE 11 15 1007.1 - 0.0 - - - - - - -
18/03:00pm 32.0 ESE 11 14 1007.1 - 0.0 - - - - - - -
18/02:30pm 33.0 ESE 11 15 1007.4 - 0.0 - - - - - - -
18/02:00pm 33.4 E 11 13 1008.0 - 0.0 - - - - - - -
18/01:30pm 33.7 E 10 13 1008.1 - 0.0 - - - - - - -
18/01:00pm 32.7 E 10 13 1008.6 - 0.0 - - - - - - -
18/12:30pm 31.8 E 11 14 1009.3 - 0.0 - - - - - - -
18/12:00pm 31.7 ENE 11 15 1009.7 - 0.0 - - - - - - -
18/11:30am 31.6 ENE 12 16 1010.0 - 0.0 - - - - - - -
18/11:00am 31.9 ENE 11 15 1010.2 - 0.0 - - - - - - -
18/10:30am 31.5 ENE 13 16 1010.5 - 0.0 - - - - - - -
18/10:00am 29.9 ENE 14 17 1010.7 - 0.0 - - - - - - -
18/09:30am 30.3 ENE 14 18 1010.6 - 0.0 - - - - - - -
18/09:00am 29.3 E 14 19 1010.3 - 12.0 - - - - - - -
18/08:30am 27.8 ENE 15 20 1010.0 - 12.0 - - - - - - -
18/08:00am 29.6 ENE 9 11 1009.7 - 12.0 - - - - - - -
18/07:30am 29.0 ENE 9 11 1009.3 - 12.0 - - - - - - -
18/07:00am 28.3 E 9 11 1009.0 - 12.0 - - - - - - -
18/06:30am 27.9 E 8 11 1008.6 - 12.0 - - - - - - -
18/06:00am 27.4 ESE 10 11 1008.3 - 12.0 - - - - - - -
18/05:30am 27.1 ESE 10 12 1008.1 - 12.0 - - - - - - -
18/05:00am 27.0 ESE 8 11 1007.9 - 12.0 - - - - - - -
18/04:30am 26.7 E 8 9 1007.6 - 12.0 - - - - - - -
18/04:00am 26.7 ESE 8 9 1007.1 - 12.0 - - - - - - -
18/03:30am 26.8 E 9 10 1006.9 - 12.0 - - - - - - -
18/03:00am 26.8 E 7 9 1006.9 - 12.0 - - - - - - -
18/02:30am 26.5 E 6 7 1006.9 - 12.0 - - - - - - -
18/02:00am 26.7 E 6 8 1007.1 - 12.0 - - - - - - -
18/01:30am 26.7 ESE 7 8 1007.5 - 12.0 - - - - - - -
18/01:00am 27.1 ESE 8 10 1007.9 - 12.0 - - - - - - -
18/12:30am 27.4 ESE 10 12 1008.4 - 12.0 - - - - - - -
18/12:00am 27.5 ESE 11 13 1009.0 - 12.0 - - - - - - -
 
Date/Time
CST
Temp
°C
Wind Pressure Rain since
9am
mm
Weather Cloud Vis
km
Sea
Height
m
Swell
Dir  Spd
kts
Gust
kts
hPa Trend Height
m
Period
s
Dir
17/11:30pm 27.6 ESE 11 13 1009.4 - 12.0 - - - - - - -
17/11:00pm 27.7 ESE 12 15 1009.6 - 12.0 - - - - - - -
17/10:30pm 27.8 ESE 11 14 1009.4 - 12.0 - - - - - - -
17/10:00pm 27.8 ESE 13 16 1008.9 - 12.0 - - - - - - -
17/09:30pm 27.8 ESE 13 15 1008.7 - 12.0 - - - - - - -

Other Formats:

Comma delimited format used in spreadsheet applications
http://www.bom.gov.au/fwo/IDD60701/IDD60701.94147.axf

JavaScript Object Notation format (JSON) in row-major order
http://www.bom.gov.au/fwo/IDD60701/IDD60701.94147.json